www.pogodaiklimat.ru

Погода и климат >> Архив погоды >> Индонезия >> Аэропорт Умбу Механг Кунда


ПОГОДА в Аэропорту Умбу Механг Кунда

  • Прогноз погоды в Аэропорту Умбу Механг Кунда
  • Монитор погоды в Аэропорту Умбу Механг Кунда

АРХИВ ПОГОДЫ в Аэропорту Умбу Механг Кунда

Время (UTC), дата Ветер
(напр.,м/с)
 
Видим.   Явления Облачность Т
(С)
Тd
(С)
f
(%)
Тe
(С)
Тes
(С)
Комфортность P
(гПа)
Po
(гПа)
Тmin
(С)
Tmax
(С)
R
(мм)
R24
(мм)
S
(см)
00 17.01 штиль 0 10 км 9/6 600 м
[Cu med, cong Ac trans Ci sp]
+26.6 +24.7 89 +38 +40 очень
душно
1009.1 1007.9 +25.0 0.1
03 17.01 СВ 4 10 км 8/3 600 м
[Cu med, cong Ac trans Ci sp]
+30.9 +24.7 70 +44 +50 опасность
перегрева
1008.8 1007.6
06 17.01 штиль 0 7000 м слаб. дождь 10/6 600 м
[Cu med, cong Ac trans Ci sp]
+25.4 +23.9 91 +35 +39 очень
душно
1008.1 1006.4 22
09 17.01 штиль 0 5000 м слаб. дождь 10/9 600 м
[Cu med, cong Ac As]
+25.4 +23.4 89 +34 +34 очень
душно
1008.2 1006.2 3
12 17.01 штиль 0 5000 м {дождь} 10/4 600 м
[Cu med, cong Ac As Ci sp]
+25.1 +23.8 93 +34 +34 очень
душно
1009.0 1007.8 +31.6 0.8
15 17.01 штиль 0 5000 м 10/4 600 м
[Cu med, cong Ac As Ci sp]
+25.0 +24.2 95 +34 +34 очень
душно
1009.8 1008.6
18 17.01 ЮЗ 2 5000 м 9/4 600 м
[Cu med, cong Ac As Ci sp]
+24.6 +23.6 94 +33 +33 очень
душно
1008.0 1006.8 0.8
21 17.01 Ю 4 5000 м 4/3 600 м
[Cu hum Ci fib]
+24.3 +23.2 94 +33 +33 очень
душно
1006.8 1005.8
00 18.01 штиль 0 10 км 5/1 600 м
[Cu med, cong Ac trans Ci sp]
+26.8 +24.4 87 +38 +43 очень
душно
1008.7 1007.5 +25.0 26
03 18.01 СЗ 3 10 км 6/3 600 м
[Cu med, cong Ac trans Ci sp]
+31.2 +25.4 71 +45 +54 опасность
перегрева
1008.7 1007.5
06 18.01 ЮЗ 3 5000 м гроза, ливневой дождь 10/8 540 м
[Cb cap Ac trans Ci sp]
+29.4 +23.9 72 +40 +42 очень
душно
1007.2 1006.0
09 18.01 штиль 0 8000 м {гроза, дождь} 10/4 600 м
[Cu med, cong Ac trans Ci sp]
+24.5 +24.1 98 +34 +35 очень
душно
1006.8 1005.6 30
12 18.01 штиль 0 5000 м {гроза, дождь} 9/3 600 м
[Cu med, cong Ac trans Ci sp]
+25.1 +22.9 88 +33 +33 очень
душно
1009.0 1007.8 +31.4 30
15 18.01 штиль 0 5000 м 6/4 600 м
[Cu med, cong Ac trans Ci sp]
+25.2 +23.8 92 +34 +34 очень
душно
1009.7 1008.5
18 18.01 штиль 0 5000 м 6/4 600 м
[Cu med, cong Ac trans Ci sp]
+25.0 +23.5 91 +34 +34 очень
душно
1008.2 1007.2
21 18.01 ЮЗ 2 5000 м 5/3 600 м
[Cu hum Ci sp]
+25.1 +23.2 89 +34 +34 очень
душно
1008.2 1007.0
00 19.01 Ю 2 10 км 9/3 600 м
[Cu med, cong Ac trans Ci sp]
+26.0 +24.1 89 +36 +39 очень
душно
1009.8 1008.6 +24.2 30
03 19.01 СВ 4 10 км 8/3 600 м
[Cu med, cong Ac trans Ci sp]
+31.0 +24.8 70 +44 +51 опасность
перегрева
1009.3 1008.1
06 19.01 З 3 10 км 9/5 600 м
[Cu med, cong Ac trans Ci sp]
+31.8 +25.5 69 +46 +50 опасность
перегрева
1007.2 1006.0
09 19.01 штиль 0 10 км {дождь} 10/5 600 м
[Cu med, cong Ac As Ci sp]
+27.0 +24.7 87 +38 +39 очень
душно
1007.5 1006.3 2
12 19.01 штиль 0 5000 м {дождь} 6/4 600 м
[Cu med, cong Ac trans Ci sp]
+26.0 +24.5 91 +36 +36 очень
душно
1008.8 1007.6 +31.8 2
15 19.01 штиль 0 5000 м 6/1 600 м
[Cu med, cong Ac trans Ci sp]
+25.7 +24.6 94 +36 +36 очень
душно
1010.1 1008.9
18 19.01 Ю 3 5000 м 4/1 600 м
[Cu hum Ac trans Ci sp]
+25.2 +23.7 91 +34 +34 очень
душно
1008.4 1007.2
21 19.01 штиль 0 5000 м 4/1 600 м
[Cu hum Ac trans Ci sp]
+24.5 +23.2 92 +33 +33 очень
душно
1007.9 1006.7
00 20.01 штиль 0 10 км 5/1 600 м
[Cu hum Ci sp]
+27.6 +24.1 81 +38 +45 очень
душно
1009.6 1008.9 +24.4 2
03 20.01 СВ 4 10 км 8/4 600 м
[Cu hum Ac trans Ci sp]
+30.8 +25.1 72 +45 +51 опасность
перегрева
1009.3 1008.1
06 20.01 СВ 4 10 км 9/4 600 м
[Cu med, cong Ac trans Ci sp]
+31.8 +25.8 71 +47 +51 опасность
перегрева
1007.5 1006.4
09 20.01 штиль 0 10 км {дождь} 9/5 600 м
[Cu med, cong Ac trans Ci sp]
+27.2 +25.1 88 +39 +40 очень
душно
1007.5 1006.3 1
12 20.01 штиль 0 10 км 9/3 600 м
[Cu med, cong Ac trans Ci sp]
+26.6 +24.9 90 +38 +38 очень
душно
1008.5 1007.3 +33.0 1
15 20.01 Ю 3 5000 м 8/1 600 м
[Cu hum Ci sp]
+25.9 +24.4 91 +36 +36 очень
душно
1009.5 1008.3
18 20.01 ЮЗ 4 5000 м 4/1 600 м
[Cu hum Ci fib]
+25.2 +23.7 91 +34 +34 очень
душно
1007.6 1006.4
21 20.01 Ю 3 5000 м 3/1 600 м
[Cu hum Ci fib]
+25.0 +23.1 89 +33 +33 очень
душно
1006.9 1005.7
00 21.01 штиль 0 10 км 5/1 600 м
[Cu hum Ci sp]
+27.4 +24.6 85 +39 +46 очень
душно
1008.4 1007.2 +25.0 1
03 21.01 СВ 3 10 км 10/3 600 м
[Cu hum Ac trans Ci sp]
+30.4 +24.7 72 +43 +49 опасность
перегрева
1008.5 1007.3
06 21.01 штиль 0 10 км 10/3 600 м
[Cu med, cong Ac trans Ci sp]
+30.6 +25.6 75 +45 +53 опасность
перегрева
1006.5 1005.3
09 21.01 штиль 0 10 км 10/4 600 м
[Cu med, cong Ac As Ci sp]
+30.5 +24.3 70 +43 +44 опасность
перегрева
1006.2 1005.0
12 21.01 штиль 0 5000 м {дождь} 10/5 600 м
[Cu med, cong Ac As Ci sp]
+28.0 +25.7 87 +41 +41 опасность
перегрева
1007.3 1006.1 +31.2 0.2
15 21.01 штиль 0 5000 м 10/3 600 м
[Cu med, cong As op Ci sp]
+26.7 +24.8 89 +38 +38 очень
душно
1007.7 1006.5
18 21.01 штиль 0 5000 м 10/3 600 м
[Cu med, cong As op Ci sp]
+26.3 +24.2 88 +37 +37 очень
душно
1006.3 1005.1
21 21.01 штиль 0 5000 м 8/3 600 м
[Cu med, cong Ac trans Ci sp]
+25.8 +23.9 89 +35 +35 очень
душно
1005.6 1004.6
00 22.01 штиль 0 10 км 10/5 600 м
[Cu med, cong Ac trans Ci sp]
+26.8 +24.4 87 +38 +40 очень
душно
1007.1 1005.9 +25.4 0.2
03 22.01 штиль 0 10 км 10/5 600 м
[Cu med, cong Ac trans Ci sp]
+29.4 +24.8 76 +42 +49 опасность
перегрева
1007.6 1006.4
06 22.01 В 2 10 км 8/4 600 м
[Cu med, cong Ac trans Ci sp]
+31.8 +26.7 74 +49 +55 опасность
перегрева
1004.6 1003.4
09 22.01 В 4 1000 м сильн. дождь 10/8 600 м
[Cu med, cong Ac As Ci sp]
+24.8 +24.0 95 +34 +34 очень
душно
1006.3 1005.1 69
12 22.01 штиль 0 5000 м в посл. час дождь 10/5 600 м
[Cu med, cong Ac As Ci sp]
+24.1 +24.0 99 +33 +33 очень
душно
1007.3 1006.3 +32.3 9
15 22.01 штиль 0 5000 м {дождь} 10/5 600 м
[Cu med, cong Ac As Ci sp]
+24.6 +24.0 96 +34 +34 очень
душно
1008.0 1006.8 0.7
18 22.01 штиль 0 5000 м в посл. час дождь 10/5 600 м
[Cu med, cong Ac trans Ci sp]
+24.2 +24.1 99 +33 +33 очень
душно
1006.2 1005.0 3
21 22.01 штиль 0 5000 м 10/5 600 м
[Cu med, cong Ac trans Ci sp]
+24.8 +23.8 94 +34 +34 очень
душно
1006.5 1005.3
00 23.01 штиль 0 8000 м слаб. дождь 10/4 600 м
[Cu med, cong Ac As Ci sp]
+24.9 +23.8 94 +34 +37 очень
душно
1007.5 1006.3 +23.6 0.8
03 23.01 штиль 0 10 км в посл. час дождь 10/3 600 м
[Cu med, cong As op]
+26.4 +24.7 90 +37 +41 очень
душно
1007.7 1006.5 3
06 23.01 Ю 3 10 км в посл. час дождь 10/8 600 м
[Cu med, cong As op Ci sp]
+29.3 +24.5 75 +41 +43 опасность
перегрева
1006.6 1004.8 0.0
09 23.01 штиль 0 10 км {дождь} 10/6 600 м
[Cu med, cong Ac lent Ci sp]
+26.8 +22.3 76 +35 +35 очень
душно
1005.8 1004.6 0.7
12 23.01 штиль 0 5000 м {дождь} 10/5 600 м
[Cu med, cong Ac cuf Ci sp]
+26.4 +21.3 74 +34 +34 очень
душно
1007.2 1006.0 +32.0 4
15 23.01 штиль 0 5000 м 10/5 600 м
[Cu med, cong Ac cuf Ci sp]
+25.7 +22.9 85 +34 +34 очень
душно
1007.9 1006.7
18 23.01 З 2 5000 м 10/5 600 м
[Cu med, cong Ac cuf Ci sp]
+26.1 +22.9 83 +35 +35 очень
душно
1006.4 1005.2
21 23.01 штиль 0 5000 м 10/5 600 м
[Cu med, cong Ac cuf Ci sp]
+26.6 +22.8 80 +35 +35 очень
душно
1005.6 1004.4

 

Местоположение метеостанции Аэропорт Умбу Механг Кунда (Индонезия): широта -9.67 долгота 120.33 высота над уровнем моря 12 м.

В архиве по умолчанию представлена погода в Аэропорту Умбу Механг Кунда за последнюю неделю. Архивные данные за месяц целиком и за предыдущие месяцы, начиная с января 2011 года, Вы можете получить, выбрав интересующий диапазон дат из раскрывающегося списка и нажав кнопку "Ввод!".


*Определитесь, кто Вы:
робот инопланетянин человек

Внимание! Время в таблицах - всемирное. Для получения местного времени необходимо прибавить поправку, которая равна 7 ч.

Смотрите также архив погоды в соседних городах и на ближайших метеорологических станциях:

Погода в Рутенге (Индонезия) (116 км)
Погода в Сабу (Индонезия) (188 км)
Погода в Биме (Индонезия) (218 км)
Погода в Маумере (Индонезия) (240 км)
Погода на Роти (Индонезия) (322 км)
Погода в Ларантуке (Индонезия) (329 км)
Погода в Сумбава-Бесаре (Индонезия) (347 км)
Погода в Купанге (Индонезия) (369 км)
Погода в Матараме (Индонезия) (486 км)
Погода на Алоре (Индонезия) (492 км)

Пояснения к столбцам:

Ветер - указаны скорость ветра в м/с - средняя за 10 мин, порывы в срок и между сроками (в фигурных скобках) и направление, откуда дует ветер: С - северный, СВ - северо-восточный, В - восточный, ЮВ - юго-восточный, Ю - южный, ЮЗ - юго-западный, З - западный, СЗ - северо-западный.
Видимость - горизонтальная дальность видимости в метрах или километрах. При видимости от 1 до 10 км при отсутствии осадков обычно наблюдается дымка, при ухудшении видимости до 1 км и менее - туман. В сухую погоду видимость может ухудшаться дымом, пылью или мглою.
Явления - указаны атмосферные явления, наблюдавшиеся в срок или в последний час перед сроком; фигурными скобками обозначены явления, наблюдавшиеся между сроками (за 1-3 часа до срока); квадратными скобками обозначены град или гололедные отложения с указанием их диаметра в мм.
Облачность - указаны через наклонную черту общая и нижняя облачность в баллах и высота нижней границы облаков в метрах; квадратными скобками обозначены формы облаков: Ci - перистые, Cs - перисто-слоистые, Cc - перисто-кучевые, Ac - высококучевые, As - высокослоистые, Sc - слоисто-кучевые, Ns - слоисто-дождевые, Cu - кучевые, Cb - кучево-дождевые. Подробнее классификацию облаков см. в Атласе облаков (PDF).
T - Температура воздуха - температура, измеренная на высоте 2 м над землей.
Td - Температура точки росы - температура, при понижении до которой содержащийся в воздухе водяной пар достигнет насыщения.
f - Относительная влажность воздуха - влажноcть воздуха, измеренная на высоте 2 м над землей.
Te - Эффективная температура - температура, которую ощущает одетый по сезону человек в тени. Характеристика душности погоды. При расчете учитывается влияние влажности воздуха и скорости ветра на теплоощущения человека.
Tes - Эффективная температура на солнце - температура, которую ощущает человек, с поправкой на солнечный нагрев. Характеристика знойности погоды. Зависит от высоты солнца над горизонтом, облачности и скорости ветра. Ночью, в пасмурную погоду, а также при ветре 12 м/с и более поправка равна нулю.
P - Атмосферное давление - приведенное к уровню моря атмосферное давление.
Po - Атмосферное давление - измеренное на уровне метеостанции атмосферное давление.
Tmin - Минимальная температура - минимум температуры воздуха на высоте 2 м над землей.
Tmax - Максимальная температура - максимум температуры воздуха на высоте 2 м над землей.
R - Количество осадков - Количество выпавших осадков за период времени, мм. При наведении курсора мыши на число - период времени, за который выпало указанное количество осадков.
R24 - Количество осадков - Количество выпавших осадков за 24 часа, мм.
S - Снежный покров - Высота снежного покрова, см. При наведении курсора мыши на число - состояние снежного покрова и степень покрытия местности в баллах.